1496973601.16,57670,17.63,74078.8,0.41,-28.79,-29.17,0,*42
1496973602.37,57671,17.63,74078.0,0.41,-28.85,-29.07,0,*41
1496973603.64,57672,17.63,74078.0,0.41,-29.01,-29.35,0,*4E
1496973604.87,57673,17.63,74078.8,0.41,-29.07,-29.39,0,*45
1496973606.11,57674,17.63,74078.0,0.41,-29.17,-29.57,0,*4B
1496973607.35,57675,17.63,74078.8,0.41,-29.23,-29.39,0,*45
1496973608.58,57676,17.63,74082.3,0.41,-29.01,-29.23,0,*4D
1496973609.76,57677,17.63,74082.8,0.43,-28.97,-29.23,0,*40
1496973611.0,57678,17.63,74084.0,0.41,-29.01,-29.23,0,*43
1496973612.22,57679,17.63,74082.5,0.39,-29.13,-29.45,0,*4E
1496973613.42,57680,17.63,74080.5,0.41,-28.85,-29.07,0,*4F
1496973614.68,57681,17.63,74082.5,0.41,-28.47,-28.79,0,*48
1496973615.92,57682,17.63,74080.5,0.39,-28.59,-28.91,0,*4D
1496973617.14,57683,17.63,74082.5,0.39,-28.69,-28.91,0,*4F
1496973618.35,57684,17.63,74082.3,0.41,-28.69,-28.97,0,*41
1496973619.58,57685,17.63,74080.0,0.41,-28.63,-28.97,0,*4A
1496973620.82,57686,17.63,74084.5,0.41,-28.63,-28.97,0,*49
1496973622.01,57687,17.63,74086.8,0.43,-28.53,-28.85,0,*4A
1496973623.25,57688,17.63,74082.3,0.41,-28.79,-28.97,0,*4C
1496973624.48,57689,17.63,74084.3,0.41,-28.79,-29.07,0,*45
1496973625.71,57690,17.63,74084.8,0.41,-28.85,-29.17,0,*4F
1496973626.95,57691,17.63,74080.3,0.41,-29.01,-29.23,0,*44
1496973628.18,57692,17.63,74084.3,0.41,-29.07,-29.39,0,*4A
1496973629.42,57693,17.63,74086.3,0.41,-29.07,-29.39,0,*4B
1496973630.69,57694,17.63,74084.8,0.41,-29.01,-29.51,0,*44
1496973631.9,57695,17.63,74082.8,0.43,-28.97,-29.17,0,*4B
1496973633.11,57696,17.63,74080.8,0.39,-28.85,-29.13,0,*42
1496973634.32,57697,17.63,74080.3,0.39,-29.07,-29.29,0,*41
1496973635.54,57698,17.63,74086.3,0.39,-29.13,-29.57,0,*42
1496973636.78,57699,17.63,74086.0,0.37,-29.17,-29.61,0,*4C
1496973638.01,57700,17.63,74088.3,0.41,-29.07,-29.39,0,*40
1496973639.25,57701,17.63,74084.5,0.37,-29.13,-29.45,0,*4E
1496973640.49,57702,17.63,74082.5,0.37,-29.07,-29.35,0,*4F
1496973641.73,57703,17.63,74084.8,0.39,-28.79,-29.13,0,*4C
1496973642.97,57704,17.63,74080.8,0.39,-28.91,-29.29,0,*44
1496973644.21,57705,17.63,74086.0,0.37,-29.07,-29.35,0,*48
1496973645.45,57706,17.63,74084.8,0.39,-29.01,-29.29,0,*4E
1496973646.67,57707,17.63,74086.0,0.39,-28.91,-29.23,0,*4D
1496973647.88,57708,17.63,74086.5,0.37,-28.85,-29.23,0,*49
1496973649.11,57709,17.63,74082.8,0.39,-28.75,-29.13,0,*4A
1496973650.35,57710,17.63,74084.0,0.37,-28.91,-29.07,0,*43
1496973651.58,57711,17.63,74082.3,0.39,-28.75,-29.13,0,*43
1496973652.82,57712,17.63,74084.5,0.37,-28.91,-29.07,0,*41
1496973654.07,57713,17.63,74084.0,0.39,-28.59,-28.91,0,*44
1496973655.34,57714,17.63,74086.5,0.37,-28.63,-28.91,0,*44
1496973656.55,57715,17.63,74084.5,0.39,-28.43,-28.69,0,*4E
1496973657.8,57716,17.63,74086.5,0.37,-28.47,-28.79,0,*46
1496973659.04,57717,17.63,74084.5,0.39,-28.43,-28.75,0,*41
1496973660.28,57718,17.63,74084.3,0.37,-28.63,-28.97,0,*4E
1496973661.51,57719,17.63,74084.3,0.39,-28.75,-29.01,0,*48
1496973662.75,57720,17.63,74084.5,0.41,-28.63,-28.97,0,*44
1496973663.96,57721,17.63,74080.3,0.39,-28.97,-29.17,0,*48
1496973665.23,57722,17.63,74082.3,0.37,-28.79,-29.17,0,*45
1496973666.45,57723,17.63,74082.3,0.39,-28.85,-29.01,0,*4E
1496973667.66,57724,17.63,74084.0,0.39,-28.85,-29.13,0,*4A
1496973668.9,57725,17.63,74086.5,0.39,-28.75,-29.01,0,*47
1496973670.12,57726,17.63,74086.8,0.39,-28.53,-28.91,0,*48
1496973671.33,57727,17.63,74080.5,0.39,-28.63,-28.97,0,*4C
1496973672.57,57728,17.63,74082.3,0.37,-28.75,-28.97,0,*4A
1496973673.81,57729,17.63,74078.8,0.39,-28.59,-29.01,0,*45
1496973675.03,57730,17.63,74080.3,0.39,-28.69,-28.91,0,*46
1496973676.25,57731,17.63,74082.3,0.39,-28.53,-28.91,0,*4E
1496973677.45,57732,17.63,74084.0,0.39,-28.53,-28.85,0,*48
1496973678.71,57733,17.63,74078.8,0.37,-28.75,-28.91,0,*46
1496973679.95,57734,17.63,74082.0,0.39,-28.43,-28.75,0,*40
1496973681.16,57735,17.63,74082.8,0.39,-28.53,-28.75,0,*40
1496973682.38,57736,17.63,74082.3,0.39,-28.53,-28.91,0,*49
1496973683.6,57737,17.63,74082.5,0.41,-28.53,-28.85,0,*42
1496973684.84,57738,17.63,74082.3,0.41,-28.47,-28.85,0,*48
1496973686.07,57739,17.63,74080.8,0.37,-28.75,-28.97,0,*4A
1496973687.34,57740,17.63,74084.3,0.37,-28.59,-28.91,0,*4C
1496973688.58,57741,17.63,74082.5,0.39,-28.59,-28.91,0,*43
1496973689.8,57742,17.63,74082.5,0.39,-28.69,-29.01,0,*4B
1496973691.06,57743,17.63,74084.8,0.41,-28.79,-29.17,0,*43
1496973692.33,57744,17.63,74082.5,0.37,-28.91,-29.35,0,*43
1496973693.54,57745,17.63,74084.8,0.39,-29.07,-29.29,0,*4F
1496973694.78,57746,17.63,74080.8,0.41,-29.07,-29.39,0,*42
1496973696.02,57747,17.63,74082.5,0.37,-29.29,-29.67,0,*45
1496973697.27,57748,17.63,74086.5,0.37,-29.35,-29.67,0,*47
1496973698.49,57749,17.63,74086.5,0.39,-29.29,-29.57,0,*46
1496973699.75,57750,17.63,74082.5,0.37,-29.13,-29.51,0,*4F
1496973700.99,57751,17.63,74080.8,0.37,-28.97,-29.29,0,*4C
1496973702.23,57752,17.63,74080.0,0.37,-28.97,-29.35,0,*42
1496973703.45,57753,17.63,74080.5,0.37,-29.07,-29.45,0,*4C
1496973704.68,57754,17.63,74080.5,0.37,-29.07,-29.39,0,*40
1496973705.93,57755,17.63,74080.0,0.37,-29.07,-29.35,0,*4D
1496973707.17,57756,17.63,74076.5,0.39,-28.75,-29.01,0,*43
1496973708.41,57757,17.63,74080.8,0.37,-28.91,-29.07,0,*40
1496973709.64,57758,17.63,74080.0,0.37,-28.63,-29.07,0,*42
1496973710.88,57759,17.63,74080.0,0.35,-28.79,-29.17,0,*4B
1496973712.1,57760,17.63,74082.3,0.39,-28.85,-29.13,0,*4A
1496973713.36,57761,17.63,74082.8,0.37,-28.91,-29.17,0,*44
1496973714.63,57762,17.63,74084.0,0.37,-28.91,-29.17,0,*47
1496973715.87,57763,17.63,74082.5,0.37,-28.97,-29.35,0,*40
1496973717.08,57764,17.63,74082.8,0.39,-28.75,-29.23,0,*42
1496973718.32,57765,17.63,74086.5,0.37,-28.97,-29.29,0,*4B
1496973719.54,57766,17.63,74086.8,0.35,-28.97,-29.35,0,*47
1496973720.76,57767,17.63,74080.8,0.35,-28.97,-29.35,0,*46
1496973721.98,57768,17.63,74082.5,0.37,-29.07,-29.45,0,*44
1496973723.19,57769,17.63,74082.5,0.37,-29.07,-29.45,0,*45
1496973724.46,57770,17.63,74082.8,0.37,-29.17,-29.39,0,*47
1496973725.67,57771,17.63,74076.0,0.35,-29.13,-29.61,0,*4D
1496973726.9,57772,17.63,74086.5,0.35,-27.99,-28.31,0,*46
1496973728.12,57773,17.63,74084.5,0.35,-27.23,-27.55,0,*4B
1496973729.36,57774,17.63,74086.0,0.37,-27.77,-27.99,0,*4F
1496973730.6,57775,17.63,74084.0,0.37,-27.77,-27.99,0,*4E
1496973731.82,57776,17.63,74088.8,0.39,-28.25,-28.69,0,*4B
1496973733.02,57777,17.63,74082.0,0.39,-28.53,-28.85,0,*49
1496973734.24,57778,17.63,74082.5,0.39,-28.69,-28.91,0,*4A
1496973735.43,57779,17.63,74084.3,0.39,-28.85,-29.23,0,*41
1496973736.67,57780,17.63,74082.8,0.39,-28.91,-29.13,0,*41
1496973737.89,57781,17.63,74082.8,0.39,-29.01,-29.45,0,*4B
1496973739.13,57782,17.63,74082.8,0.41,-29.07,-29.51,0,*44
1496973740.37,57783,17.63,74086.5,0.41,-29.17,-29.61,0,*47
1496973741.62,57784,17.63,74086.0,0.37,-29.35,-29.67,0,*47
1496973742.83,57785,17.63,74080.5,0.39,-29.29,-29.61,0,*43
1496973744.08,57786,17.63,74078.8,0.37,-29.35,-29.61,0,*43
1496973745.31,57787,17.63,74080.8,0.35,-29.35,-29.67,0,*46
1496973746.52,57788,17.63,74082.0,0.35,-29.29,-29.61,0,*42
1496973747.75,57789,17.63,74076.3,0.35,-29.29,-29.67,0,*45
1496973748.99,57790,17.63,74080.5,0.35,-29.13,-29.51,0,*41
1496973750.24,57791,17.63,74076.8,0.35,-29.13,-29.51,0,*40
1496973751.47,57792,17.63,74078.8,0.35,-29.35,-29.61,0,*44
1496973752.72,57793,17.63,74080.5,0.33,-29.35,-29.67,0,*45
1496973753.97,57794,17.63,74080.8,0.33,-29.35,-29.67,0,*42
1496973755.2,57795,17.63,74080.3,0.35,-29.35,-29.67,0,*45
1496973756.47,57796,17.63,74076.5,0.33,-29.35,-29.73,0,*45
1496973757.72,57797,17.63,74082.3,0.33,-29.39,-29.57,0,*4E
1496973758.99,57798,17.63,74080.5,0.33,-29.39,-29.73,0,*47
1496973760.24,57799,17.63,74078.8,0.33,-29.35,-29.67,0,*4F
1496973761.46,57800,17.63,74078.5,0.35,-29.39,-29.79,0,*45
1496973762.73,57801,17.63,74080.8,0.33,-29.39,-29.73,0,*48
1496973763.96,57802,17.63,74082.8,0.35,-29.35,-29.67,0,*44
1496973765.23,57803,17.63,74082.5,0.33,-29.39,-29.73,0,*4A
1496973766.46,57804,17.63,74080.5,0.35,-29.35,-29.67,0,*42
1496973767.71,57805,17.63,74080.3,0.31,-29.39,-29.73,0,*4E
1496973768.93,57806,17.63,74082.0,0.31,-29.39,-29.83,0,*42
1496973770.21,57807,17.63,74080.8,0.29,-29.39,-29.73,0,*45
1496973771.46,57808,17.63,74082.0,0.29,-29.39,-29.61,0,*49
1496973772.7,57809,17.63,74082.0,0.29,-29.29,-29.61,0,*49
1496973773.94,57810,17.63,74084.5,0.31,-29.17,-29.39,0,*48
1496973775.16,57811,17.63,74086.0,0.29,-29.23,-29.45,0,*4C
1496973776.4,57812,17.63,74084.0,0.29,-28.85,-29.17,0,*45
1496973777.67,57813,17.63,74084.5,0.29,-28.75,-29.01,0,*4C
1496973778.92,57814,17.63,74080.5,0.29,-28.59,-28.85,0,*48
1496973780.13,57815,17.63,74080.3,0.31,-28.47,-28.69,0,*4D
1496973781.37,57816,17.63,74082.5,0.31,-28.21,-28.47,0,*42
1496973782.62,57817,17.63,74080.5,0.31,-28.05,-28.21,0,*45
1496973783.86,57818,17.63,74080.3,0.31,-27.83,-28.05,0,*4D
1496973785.06,57819,17.63,74080.0,0.31,-27.93,-28.15,0,*4C
1496973786.33,57820,17.63,74080.5,0.33,-28.21,-28.47,0,*45
1496973787.6,57821,17.63,74080.0,0.33,-28.21,-28.47,0,*44
1496973788.86,57822,17.63,74082.8,0.33,-27.83,-28.05,0,*46
1496973790.06,57823,17.63,74080.8,0.35,-27.89,-28.15,0,*4A
1496973791.28,57824,17.63,74080.3,0.35,-27.77,-27.99,0,*47
1496973792.53,57825,17.63,74082.5,0.33,-27.67,-27.83,0,*4A
1496973793.75,57826,17.63,74082.8,0.35,-27.77,-28.09,0,*43
1496973795.01,57827,17.63,74084.8,0.37,-28.43,-28.59,0,*4D
1496973796.25,57828,17.63,74086.8,0.37,-28.75,-28.97,0,*45
1496973797.48,57829,17.63,74088.8,0.37,-28.75,-28.97,0,*44
1496973798.72,57830,17.63,74088.5,0.37,-28.59,-28.97,0,*42
1496973799.96,57831,17.63,74086.3,0.37,-28.75,-28.97,0,*4D
1496973801.17,57832,17.63,74082.3,0.35,-28.63,-28.97,0,*4B
1496973802.41,57833,17.63,74080.0,0.35,-28.75,-29.17,0,*44
1496973803.68,57834,17.63,74080.5,0.37,-28.91,-29.17,0,*4B
1496973804.91,57835,17.63,74082.3,0.37,-28.79,-29.07,0,*4D
1496973806.15,57836,17.63,74080.8,0.35,-28.59,-28.79,0,*46
1496973807.37,57837,17.63,74080.8,0.35,-28.63,-28.97,0,*4E
1496973808.61,57838,17.63,74080.0,0.35,-28.47,-28.91,0,*41
1496973809.83,57839,17.63,74078.3,0.35,-28.59,-28.97,0,*49
1496973811.07,57840,17.63,74080.0,0.35,-28.47,-28.75,0,*44
1496973812.3,57841,17.63,74078.3,0.35,-28.47,-28.79,0,*49
1496973813.54,57842,17.63,74078.3,0.35,-28.59,-28.79,0,*45
1496973814.76,57843,17.63,74078.5,0.35,-28.59,-28.97,0,*44
1496973815.98,57844,17.63,74082.3,0.35,-28.63,-28.97,0,*4A
1496973817.21,57845,17.63,74084.0,0.37,-28.63,-28.97,0,*49
1496973818.45,57846,17.63,74082.0,0.37,-28.63,-29.07,0,*42
1496973819.71,57847,17.63,74082.0,0.37,-28.75,-29.17,0,*45
1496973820.92,57848,17.63,74082.8,0.35,-28.63,-29.07,0,*4E
1496973822.17,57849,17.63,74084.5,0.35,-28.59,-28.91,0,*48
1496973823.39,57850,17.63,74078.5,0.35,-28.59,-28.97,0,*46
1496973824.6,57851,17.63,74080.0,0.35,-28.75,-28.97,0,*49
1496973825.84,57852,17.63,74080.8,0.37,-28.79,-29.07,0,*4C
1496973827.08,57853,17.63,74082.5,0.37,-28.79,-28.97,0,*45
1496973828.32,57854,17.63,74078.3,0.35,-28.43,-28.63,0,*42
1496973829.57,57855,17.63,74082.3,0.35,-28.43,-28.63,0,*43
1496973830.81,57856,17.63,74082.3,0.35,-28.43,-28.75,0,*47
1496973832.03,57857,17.63,74082.5,0.35,-27.99,-28.31,0,*4E
1496973833.28,57858,17.63,74086.8,0.35,-28.09,-28.25,0,*42
1496973834.54,57859,17.63,74086.0,0.37,-28.09,-28.47,0,*45
1496973835.78,57860,17.63,74086.3,0.37,-28.09,-28.37,0,*48
1496973837.05,57861,17.63,74086.5,0.37,-28.43,-28.63,0,*46
1496973838.24,57862,17.63,74084.0,0.39,-28.37,-28.69,0,*42
1496973839.48,57863,17.63,74082.3,0.37,-28.59,-28.97,0,*44
1496973840.7,57864,17.63,74082.0,0.39,-28.53,-28.91,0,*41
1496973841.9,57865,17.63,74084.3,0.39,-28.53,-28.85,0,*45
1496973843.12,57866,17.63,74082.0,0.39,-28.43,-28.69,0,*45
1496973844.36,57867,17.63,74080.5,0.39,-28.43,-28.59,0,*47
1496973845.58,57868,17.63,74080.8,0.39,-28.25,-28.53,0,*42
1496973846.83,57869,17.63,74082.8,0.37,-28.43,-28.75,0,*49
1496973848.07,57870,17.63,74078.3,0.37,-28.47,-28.97,0,*49
1496973849.32,57871,17.63,74080.3,0.37,-28.47,-28.75,0,*44
1496973850.57,57872,17.63,74076.3,0.39,-28.25,-28.59,0,*43
1496973851.81,57873,17.63,74080.5,0.39,-28.25,-28.59,0,*42
1496973853.04,57874,17.63,74080.3,0.39,-28.25,-28.53,0,*4F
1496973854.25,57875,17.63,74082.0,0.39,-28.37,-28.75,0,*49
1496973855.47,57876,17.63,74082.5,0.39,-28.25,-28.37,0,*4F
1496973856.71,57877,17.63,74082.8,0.41,-27.99,-28.37,0,*49
1496973857.95,57878,17.63,74082.0,0.41,-28.31,-28.63,0,*4A
1496973859.19,57879,17.63,74080.3,0.41,-28.31,-28.63,0,*4B
1496973860.38,57880,17.63,74076.5,0.39,-28.37,-28.69,0,*4E
1496973861.58,57881,17.63,74080.0,0.39,-28.37,-28.69,0,*4F
1496973862.79,57882,17.63,74082.0,0.39,-28.37,-28.75,0,*41
1496973864.02,57883,17.63,74084.0,0.39,-28.43,-28.75,0,*43
1496973865.27,57884,17.63,74084.5,0.43,-28.21,-28.63,0,*4A
1496973866.53,57885,17.63,74086.0,0.41,-28.21,-28.47,0,*4F
1496973867.77,57886,17.63,74080.8,0.41,-28.31,-28.63,0,*4B
1496973869.02,57887,17.63,74084.3,0.41,-28.63,-28.85,0,*45
1496973870.26,57888,17.63,74080.0,0.41,-28.63,-28.85,0,*4A
1496973871.48,57889,17.63,74080.8,0.43,-28.63,-28.85,0,*49
1496973872.71,57890,17.63,74076.8,0.41,-28.79,-29.23,0,*45
1496973873.94,57891,17.63,74076.5,0.41,-28.97,-29.39,0,*4F
1496973875.15,57892,17.63,74076.5,0.41,-28.85,-29.23,0,*44
1496973876.36,57893,17.63,74084.8,0.41,-28.97,-29.23,0,*46
1496973877.57,57894,17.63,74080.8,0.41,-28.85,-29.23,0,*42
1496973878.78,57895,17.63,74082.3,0.39,-28.91,-29.23,0,*49
1496973879.97,57896,17.63,74082.3,0.39,-28.85,-29.23,0,*4F
1496973881.18,57897,17.63,74080.8,0.39,-28.85,-29.13,0,*4D
1496973882.4,57898,17.63,74080.8,0.39,-28.85,-29.29,0,*4B
1496973883.64,57899,17.63,74080.3,0.39,-28.91,-29.39,0,*4E
1496973884.83,57900,17.63,74082.3,0.39,-28.85,-29.23,0,*41
1496973886.05,57901,17.63,74078.0,0.39,-28.69,-29.01,0,*42
1496973887.26,57902,17.63,74080.8,0.39,-28.69,-29.01,0,*41
1496973888.5,57903,17.63,74078.3,0.39,-28.91,-29.13,0,*44
1496973889.72,57904,17.63,74080.8,0.39,-28.85,-29.13,0,*46
1496973890.93,57905,17.63,74078.5,0.39,-28.85,-29.13,0,*47
1496973892.14,57906,17.63,74082.5,0.39,-28.85,-29.13,0,*44
1496973893.38,57907,17.63,74082.8,0.39,-28.75,-29.01,0,*49
1496973894.59,57908,17.63,74082.8,0.41,-28.53,-28.97,0,*43
1496973895.83,57909,17.63,74086.3,0.39,-28.43,-28.75,0,*40
1496973897.03,57910,17.63,74086.8,0.39,-28.53,-28.85,0,*46
1496973898.27,57911,17.63,74086.0,0.37,-28.15,-28.59,0,*4A
1496973899.5,57912,17.63,74084.8,0.41,-27.83,-28.15,0,*40
1496973900.74,57913,17.56,74082.8,0.41,-28.05,-28.37,0,*40
1496973902.0,57914,17.63,74082.3,0.41,-28.47,-28.79,0,*4B
1496973903.21,57915,17.63,74082.0,0.41,-28.37,-28.85,0,*4E
1496973904.42,57916,17.63,74082.8,0.41,-28.69,-29.07,0,*4D
1496973905.63,57917,17.63,74084.5,0.41,-28.69,-28.97,0,*44
1496973906.86,57918,17.63,74082.3,0.41,-28.85,-29.17,0,*40
1496973908.1,57919,17.63,74080.0,0.41,-28.97,-29.17,0,*42
1496973909.33,57920,17.63,74076.0,0.41,-28.79,-29.07,0,*49
1496973910.54,57921,17.63,74080.0,0.41,-28.37,-28.69,0,*4B
1496973911.78,57922,17.63,74082.0,0.41,-28.47,-28.85,0,*4D
1496973913.01,57923,17.63,74082.5,0.41,-28.47,-28.97,0,*4F
1496973914.24,57924,17.63,74084.3,0.41,-28.63,-28.97,0,*4E
1496973915.47,57925,17.63,74082.3,0.41,-28.79,-29.07,0,*4C
1496973916.69,57926,17.63,74082.3,0.43,-28.85,-29.17,0,*4F
1496973917.92,57927,17.63,74082.8,0.41,-28.79,-29.07,0,*4E
1496973919.15,57928,17.63,74084.8,0.41,-28.85,-29.17,0,*43
1496973920.39,57929,17.63,74080.0,0.41,-28.97,-29.35,0,*41
1496973921.58,57930,17.63,74082.8,0.43,-28.97,-29.23,0,*4C
1496973922.81,57931,17.63,74084.8,0.41,-28.85,-29.17,0,*4B
1496973924.02,57932,17.63,74088.0,0.41,-28.69,-28.97,0,*43
1496973925.26,57933,17.63,74084.8,0.41,-28.47,-28.85,0,*4D
1496973926.5,57934,17.63,74086.8,0.41,-28.97,-29.35,0,*4D
1496973927.71,57935,17.63,74088.3,0.41,-29.07,-29.57,0,*40
1496973928.95,57936,17.63,74090.0,0.41,-29.23,-29.73,0,*43
1496973930.21,57937,17.63,74084.3,0.41,-29.39,-29.73,0,*49
1496973931.41,57938,17.63,74082.3,0.39,-29.45,-29.95,0,*4A
1496973932.66,57939,17.63,74080.3,0.37,-29.45,-30.01,0,*40
1496973933.88,57940,17.63,74080.3,0.37,-29.45,-29.83,0,*4C
1496973935.1,57941,17.63,74080.3,0.39,-29.39,-29.79,0,*4D
1496973936.32,57942,17.63,74082.8,0.37,-29.45,-29.79,0,*4B
1496973937.56,57943,17.63,74082.0,0.37,-29.51,-29.79,0,*4F
1496973938.78,57944,17.63,74082.8,0.37,-29.45,-29.79,0,*4D
1496973940.02,57945,17.63,74082.0,0.37,-29.35,-29.79,0,*4B
1496973941.26,57946,17.63,74080.3,0.37,-29.29,-29.61,0,*4C
1496973942.47,57947,17.63,74086.3,0.39,-29.07,-29.39,0,*42
1496973943.72,57948,17.63,74084.3,0.37,-29.07,-29.35,0,*4F
1496973944.96,57949,17.63,74086.8,0.37,-28.97,-29.35,0,*46
1496973946.17,57950,17.63,74084.3,0.37,-28.97,-29.45,0,*49
1496973947.42,57951,17.63,74084.3,0.37,-29.13,-29.67,0,*45
1496973948.63,57952,17.63,74080.5,0.35,-29.29,-29.79,0,*42
1496973949.85,57953,17.63,74080.8,0.33,-29.23,-29.67,0,*40
1496973951.07,57954,17.63,74084.3,0.33,-29.23,-29.67,0,*47
1496973952.28,57955,17.63,74080.3,0.35,-29.29,-29.79,0,*45
1496973953.48,57956,17.63,74076.5,0.35,-29.45,-29.79,0,*4C
1496973954.76,57957,17.63,74076.8,0.33,-29.51,-29.89,0,*41
1496973955.99,57958,17.63,74078.5,0.35,-29.57,-30.01,0,*46
1496973957.24,57959,17.63,74082.0,0.35,-29.51,-30.01,0,*41
1496973958.47,57960,17.56,74078.0,0.35,-29.51,-29.95,0,*4E
1496973959.71,57961,17.63,74076.8,0.33,-29.57,-30.05,0,*4E
1496973960.96,57962,17.63,74082.5,0.33,-29.67,-30.05,0,*4E
1496973962.2,57963,17.63,74080.3,0.33,-29.67,-30.05,0,*4F
1496973963.44,57964,17.63,74080.8,0.33,-29.67,-30.05,0,*48
1496973964.66,57965,17.63,74080.0,0.31,-29.67,-30.05,0,*4B
1496973965.93,57966,17.63,74080.5,0.33,-29.39,-29.73,0,*48
1496973967.17,57967,17.63,74080.8,0.31,-28.79,-29.01,0,*4B
1496973968.41,57968,17.63,74084.5,0.31,-29.01,-29.13,0,*49
1496973969.65,57969,17.63,74082.3,0.31,-29.13,-29.39,0,*43
1496973970.89,57970,17.63,74084.0,0.31,-29.13,-29.39,0,*4B
1496973972.13,57971,17.63,74086.3,0.31,-29.13,-29.39,0,*4A
1496973973.36,57972,17.63,74084.3,0.31,-29.01,-29.13,0,*42
1496973974.63,57973,17.63,74084.0,0.29,-28.91,-29.17,0,*46
1496973975.85,57974,17.63,74084.0,0.31,-28.85,-29.13,0,*49
1496973977.06,57975,17.63,74086.3,0.31,-28.53,-28.79,0,*4E
1496973978.25,57976,17.63,74086.8,0.31,-28.31,-28.53,0,*41
1496973979.5,57977,17.63,74084.5,0.33,-28.21,-28.53,0,*43
1496973980.74,57978,17.63,74086.3,0.33,-28.47,-28.85,0,*47
1496973981.98,57979,17.63,74086.3,0.33,-28.63,-28.85,0,*40
1496973983.23,57980,17.63,74080.5,0.35,-28.59,-28.91,0,*4C
1496973984.47,57981,17.63,74080.3,0.33,-28.69,-29.01,0,*40
1496973985.71,57982,17.63,74082.8,0.33,-28.69,-29.01,0,*43
1496973986.95,57983,17.63,74078.0,0.33,-28.47,-28.85,0,*43
1496973988.21,57984,17.63,74078.3,0.33,-28.21,-28.47,0,*4A
1496973989.41,57985,17.63,74082.0,0.35,-28.37,-28.69,0,*46
1496973990.66,57986,17.63,74084.0,0.35,-28.43,-28.63,0,*4C
1496973991.87,57987,17.63,74080.0,0.33,-28.53,-28.97,0,*41
1496973993.08,57988,17.63,74086.3,0.35,-28.47,-28.97,0,*4D
1496973994.32,57989,17.63,74086.0,0.35,-28.47,-28.79,0,*4C
1496973995.56,57990,17.63,74082.0,0.33,-28.53,-28.79,0,*47
1496973996.8,57991,17.63,74082.8,0.33,-28.21,-28.53,0,*4B
1496973998.04,57992,17.63,74078.0,0.35,-28.43,-28.75,0,*4E
1496973999.27,57993,17.63,74076.5,0.35,-28.47,-28.79,0,*47
1496974000.52,57994,17.63,74076.8,0.35,-28.59,-28.91,0,*49
1496974001.74,57995,17.63,74076.3,0.35,-28.75,-28.97,0,*40
1496974002.97,57996,17.63,74080.0,0.37,-28.63,-29.07,0,*4E
1496974004.21,57997,17.63,74080.5,0.37,-28.91,-29.07,0,*42
1496974005.45,57998,17.63,74076.3,0.37,-29.07,-29.35,0,*42
1496974006.7,57999,17.63,74076.8,0.37,-29.07,-29.35,0,*43
1496974007.94,58000,17.63,74082.3,0.37,-29.13,-29.45,0,*47
1496974009.18,58001,17.63,74082.5,0.35,-29.29,-29.51,0,*48
1496974010.46,58002,17.63,74082.0,0.33,-29.39,-29.73,0,*4C
1496974011.68,58003,17.63,74080.8,0.35,-29.35,-29.79,0,*4D
1496974012.9,58004,17.63,74082.0,0.35,-29.51,-29.79,0,*48
1496974014.18,58005,17.63,74084.5,0.33,-29.51,-29.89,0,*40
1496974015.43,58006,17.63,74086.3,0.33,-29.57,-29.89,0,*45
1496974016.66,58007,17.63,74084.8,0.31,-29.57,-30.01,0,*4E
1496974017.93,58008,17.63,74082.8,0.33,-29.51,-29.89,0,*4D
1496974019.19,58009,17.63,74080.5,0.31,-29.51,-30.01,0,*46
1496974020.41,58010,17.63,74080.3,0.31,-29.57,-29.89,0,*40
1496974021.64,58011,17.63,74080.5,0.31,-29.57,-29.89,0,*41
1496974022.84,58012,17.63,74082.3,0.31,-29.57,-29.83,0,*48
1496974024.1,58013,17.63,74078.3,0.29,-29.57,-29.89,0,*4A
1496974025.32,58014,17.63,74080.8,0.29,-29.57,-29.95,0,*40
1496974026.57,58015,17.63,74080.0,0.29,-29.57,-29.89,0,*4C
1496974027.82,58016,17.63,74082.5,0.29,-29.39,-29.79,0,*48
1496974029.06,58017,17.63,74082.0,0.29,-29.29,-29.57,0,*44
1496974030.26,58018,17.63,74080.3,0.31,-29.23,-29.57,0,*48
1496974031.48,58019,17.63,74082.8,0.29,-29.23,-29.61,0,*45
1496974032.73,58020,17.63,74080.3,0.31,-29.01,-29.51,0,*45
1496974033.97,58021,17.63,74082.8,0.29,-29.01,-29.45,0,*48
1496974035.22,58022,17.56,74078.8,0.29,-29.17,-29.57,0,*4F
1496974036.44,58023,17.63,74082.3,0.29,-29.23,-29.57,0,*49
1496974037.64,58024,17.63,74080.0,0.23,-29.07,-29.45,0,*41
1496974038.86,58025,17.63,74078.5,0.29,-29.23,-29.61,0,*4A
1496974040.13,58026,17.63,74076.3,0.29,-29.39,-29.73,0,*41
1496974041.38,58027,17.56,74070.0,0.27,-29.39,-29.73,0,*4E
1496974042.61,58028,17.63,74074.3,0.27,-29.45,-29.73,0,*4A
1496974043.81,58029,17.63,74076.3,0.23,-29.45,-29.83,0,*40
1496974045.0,58030,17.63,74078.5,0.27,-29.45,-29.79,0,*49
1496974046.24,58031,17.63,74082.3,0.23,-29.51,-29.83,0,*4C
1496974047.45,58032,17.63,74076.3,0.27,-29.29,-29.79,0,*41
1496974048.67,58033,17.56,74076.3,0.27,-29.29,-29.61,0,*49
1496974049.89,58034,17.63,74078.3,0.23,-29.29,-29.67,0,*4C
1496974051.11,58035,17.63,74080.0,0.27,-29.17,-29.57,0,*47
1496974052.31,58036,17.63,74080.5,0.27,-29.07,-29.45,0,*46
1496974053.56,58037,17.63,74082.5,0.23,-29.13,-29.51,0,*43
1496974054.78,58038,17.63,74082.0,0.23,-29.13,-29.45,0,*49
1496974056.0,58039,17.56,74074.3,0.23,-29.13,-29.45,0,*48
1496974057.2,58040,17.63,74080.5,0.23,-29.23,-29.45,0,*45
1496974058.39,58041,17.63,74076.8,0.23,-28.97,-29.23,0,*4A
1496974059.6,58042,17.63,74082.0,0.23,-28.63,-28.97,0,*4C
1496974060.87,58043,17.63,74082.8,0.21,-28.79,-29.13,0,*49
1496974062.08,58044,17.63,74082.5,0.23,-28.75,-29.07,0,*45
1496974063.3,58045,17.63,74082.8,0.23,-28.63,-28.97,0,*4B
1496974064.52,58046,17.63,74082.3,0.23,-28.63,-28.97,0,*48
1496974065.73,58047,17.63,74086.3,0.23,-28.63,-28.97,0,*49
1496974066.95,58048,17.63,74084.8,0.27,-28.59,-29.07,0,*43
1496974068.19,58049,17.63,74086.3,0.27,-28.59,-29.01,0,*44
1496974069.41,58050,17.63,74084.5,0.27,-28.69,-29.17,0,*48
1496974070.66,58051,17.63,74086.8,0.23,-29.13,-29.51,0,*43
1496974071.88,58052,17.63,74082.8,0.27,-29.51,-29.79,0,*48
1496974073.08,58053,17.63,74084.5,0.23,-29.45,-29.95,0,*4A
1496974074.34,58054,17.63,74080.3,0.21,-29.57,-29.89,0,*41
1496974075.59,58055,17.63,74086.8,0.21,-29.35,-29.67,0,*44
1496974076.84,58056,17.63,74084.8,0.21,-29.17,-29.57,0,*44
1496974078.11,58057,17.63,74086.0,0.21,-29.17,-29.51,0,*43
1496974079.38,58058,17.63,74084.3,0.21,-29.39,-29.73,0,*40
1496974080.63,58059,17.63,74082.0,0.21,-29.29,-29.67,0,*45
1496974081.9,58060,17.63,74078.8,0.21,-29.35,-29.73,0,*47
1496974083.16,58061,17.63,74082.3,0.21,-29.35,-29.67,0,*43
1496974084.39,58062,17.63,74080.3,0.19,-29.35,-29.57,0,*48
1496974085.63,58063,17.63,74082.3,0.19,-29.13,-29.51,0,*4B
1496974086.9,58064,17.63,74082.8,0.21,-29.13,-29.39,0,*49
1496974088.15,58065,17.63,74080.5,0.19,-29.17,-29.51,0,*49
1496974089.39,58066,17.63,74086.0,0.19,-29.29,-29.51,0,*47
1496974090.64,58067,17.63,74082.0,0.19,-29.17,-29.51,0,*4B
1496974091.88,58068,17.63,74082.3,0.19,-29.13,-29.39,0,*4E
1496974093.13,58069,17.63,74084.5,0.19,-29.01,-29.39,0,*4C
1496974094.34,58070,17.63,74082.5,0.19,-28.97,-29.29,0,*4B
1496974095.56,58071,17.63,74078.8,0.19,-28.85,-29.29,0,*49
1496974096.78,58072,17.63,74080.8,0.19,-28.85,-29.17,0,*47
1496974098.0,58073,17.56,74076.3,0.19,-28.85,-29.13,0,*42
1496974099.21,58074,17.63,74082.3,0.19,-28.97,-29.17,0,*42
1496974100.43,58075,17.63,74082.3,0.19,-28.85,-29.13,0,*44
1496974101.65,58076,17.63,74086.0,0.19,-28.85,-29.13,0,*47